Current Conditions for Foresthill, CA. Clear skies, Dry   
Visibility: 10 miles
Space WX Alerts: ALERT:  Electron 2MeV Integral Flux exceeded 1000pfu ( Latest Alert ) - Issue Time: 2018 Aug 18 1426 UTC

  Summary / Temperature 

Current Temperature
74.8°F
23.8°C
(24/hr Ago)
74.8°F
(Apparent temp)
74.1°F
Comfortable
Heat Index
74.5°F 

75.7°F/ 24.3°C
Little or no discomfort

 Temp Rate:

 24/hr Difference:

 Avg Running Temp:

 Todays High:

 Todays Low:

 Y-days High:

 Y-days Low:

 Todays HeatIdx:

 Y-days HeatIdx:

 Evapotranspiration:

-2.4°F/hr 

0°F

76.6°F

92.8°F 2:51pm

70.3°F 7:24am

90.5°F 1:55pm

70.1°F 7:13am

89.4°F 1:40pm

88.3°F 2:46pm

0.223 in

115' Above Ground

 Temperature:

 6'AGL VRS 115'AGL:

 Avg Running Temp:

 Humidity:

 Todays High:

 Todays Low:

 Y-days High:

 Y-days Low:

79.0°F 

+4.2°F

81.8°F

31% 

92.0°F 3:52pm

72.0°F 4:54am

90.0°F 3:23pm

72.0°F 4:54am

Temp & Humidity Graphs

  Wind 

Wind Speed

 Calm

Gusting to

 2.0 mph

Wind from ESE

121°  ESE

Calm

 Avg speed:

 Wind Run:

 Peak Gust:

Calm 

46.0 miles

  19.0 mph 5:42am

  Almanac  

Moon age: 8 days,5 hours,35 minutes,59%

Waxing Gibbous
59%
Illuminated
8 days in cycle

 Moonrise:

 Moonset:

 Sunrise:

 Sunset:

 Solar Noon:

2:14pm

12:04am

6:21am

7:55pm

1:07pm

2min 16s less daylight tomorrow 

  Solar Radiation 

(Current Solar)
  No Sun Light
(Todays High)
 889 W/m2@1:06pm

Rain

 Rain Today:

 Rain Rate (/hr):

 Rain last hour:

 Rain Yesterday:

 This Month:

 Season Total:

84 Days Since Last Rain Day

0.00 in

0.000 in

0.00 in

0.00 in

0.00 in

0.00 in

Updated Time

Updated: 8/18/18  10:37pm

(Updated  sec ago)

Humidity & Barometer

 Humidity:

 Wetbulb:

 Dew Point:

 Barometer:

37% 

60.1°F 

46.8°F 

29.957 inHg 

 Baro Trend:  Steady 
Northern Calif
Preparedness
Fire 
Level 

    UV Index  

(Current UV)
0.0  None
(Todays High) @ 12:57pm
8.6   Very High

National Weather Service Forecast

Tonight

Tonight: Haze
Haze
Sunday

Sunday: Haze
Haze
Sunday
Night
Sunday Night: Haze
Haze
Monday

Monday: Haze
Haze
Monday
Night
Monday Night: Haze
Haze
Tuesday

Tuesday: Haze
Haze
Lo 68 °F Hi 91 °F Lo 67 °F Hi 89 °F Lo 66 °F Hi 87 °F

Foresthill Probe 2 Stats  
Foresthill Probe 2: is located on Thomas Street
at 3000 feet. The main Foresthill Weather site
is located on Melody ln at the 2860 foot elevation

Calm
73.8°F
23.2°C
Temp Rate:
-3.2°F
Calm
Gusting to
None
(Humidity)
40%
Calm
257°  
Updated: 18/08/18 - 22:32:26
 Todays High: 94.6°F 14:37
 Todays Low: 67.3°F 06:51
 Rain Today: 0.00 in
 Season Total: 0.00 in

Foresthill Wx: Monthly,Yearly, Highs and Lows 

Foresthill  
This Weather Data is coming from the main Foresthill
Weather site located on Melody ln at the 2860 foot
elevation
Not Foresthill Probe 2
Weather Data
Month
  High
Month
  Low
Year
High
Year
Low
Temp 93.9°F
8/10/18
63.0°F
8/6/18
93.9°F
8/10/18
21.9°F
2/23/18
Humidity 58%
8/7/18
14%
8/1/18
100%
1/8/18
12%
7/8/18
Heat Index 90.9°F
8/10/18
63.0°F
8/6/18
93.3°F
7/25/18
27.1°F
2/20/18
Wind Chill 93.9°F
8/10/18
62.0°F
8/6/18
93.9°F
8/10/18
9.2°F
2/23/18
Wind Gust 21 mph
8/5/18
0 mph
8/1/18
43 mph
3/1/18
0 mph
1/1/18
Barometer 30.03 in
8/18/18
29.81 in
8/14/18
30.55 in
1/27/18
29.60 in
6/16/18
ET 0.23 in
8/12/18
0.00 in
8/1/18
0.25 in
6/24/18
0.00 in
1/1/18
Dew Point 58.7°F
8/1/18
33.2°F
8/4/18
66.9°F
7/24/18
7.6°F
2/11/18
Pacific Satellite US Radar Satellite Imagery Sacramento,CA.  (click to enlarge)
NWS Weather Forecast - Summary
Updated: Saturday, August 18, 2018 - 2:40pm PDT
Locally Gusty Southwest Winds and Low Humidity Sunday into Monday
Current Interstate Highway Conditions for I-80 & US-50

[I 80: IN THE SAN FRANCISCO BAY AREA - SOLANO CO]
no traffic restrictions are reported for this area.

[I 80: IN THE NORTHERN CALIFORNIA AREA & SIERRA NEVADA]
no traffic restrictions are reported for this area.

[US 50: IN THE SACRAMENTO VALLEY & THE LAKE TAHOE BASIN]
no traffic restrictions are reported for this area.
NWS Weather Forecast: Tonight and Sunday (Updated: Sat, 18-Aug-2018 1:51pm PDT)
Tonight

Tonight: Haze
Haze

Lo 68 °F
NWS forecast: Haze. Clear, with a low around 68. North northwest wind 3 to 7 mph.
Sunday

Sunday: Haze
Haze

Hi 91 °F
NWS forecast: Haze. Sunny, with a high near 91. South southeast wind 5 to 8 mph.
YR.NO 10 Day Weather forecast
Last update: 08/18/2018 @ 12:33
Next update: 08/19/2018 @ 01:00
Provided by: 22
      Temperature Precipitation Pressure Wind  
Today
08/18/2018
20:00 00:00 79°F   29.95 inHg Light breeze from south-southwest 4 mph
    (Click to enlarge)
meteogram

    Forecast for next 9 days

      Temperature Precip Pressure Wind  
Sunday
08/19/2018
00:00 06:00 63°F   29.97 inHg Light air from east-northeast 2 mph
  06:00 12:00 59°F   29.94 inHg Light breeze from east-northeast 5 mph
  12:00 18:00 91°F   29.92 inHg Light breeze from southwest 6 mph
  18:00 00:00 88°F   29.82 inHg Light breeze from southwest 5 mph
      Temperature Precip Pressure Wind  
Monday
08/20/2018
00:00 06:00 63°F   29.86 inHg Light air from east-northeast 3 mph
  06:00 12:00 61°F   29.82 inHg Light breeze from east-northeast 7 mph
  12:00 18:00 90°F   29.83 inHg Light breeze from southwest 7 mph
  18:00 00:00 84°F   29.78 inHg Light breeze from south-southwest 6 mph
      Temperature Precip Pressure Wind  
Tuesday
08/21/2018
00:00 06:00 59°F   29.85 inHg Light air from east-northeast 2 mph
  05:00 11:00 57°F   29.83 inHg Light breeze from east-northeast 4 mph
  11:00 17:00 81°F   29.91 inHg Light breeze from southwest 6 mph
  17:00 23:00 81°F   29.89 inHg Light breeze from southwest 7 mph
  23:00 05:00 63°F   29.94 inHg Light air from east 2 mph
      Temperature Precip Pressure Wind  
Wednesday
08/22/2018
05:00 11:00 54°F   29.94 inHg Light air from east-northeast 3 mph
  11:00 17:00 81°F   29.97 inHg Light breeze from southwest 5 mph
  17:00 23:00 82°F   29.91 inHg Light breeze from southwest 6 mph
  23:00 05:00 64°F   29.97 inHg Light air from east-southeast 1 mph
      Temperature Precip Pressure Wind  
Thursday
08/23/2018
05:00 11:00 54°F   29.97 inHg Light breeze from east-northeast 4 mph
  11:00 17:00 82°F   29.99 inHg Light breeze from southwest 5 mph
  17:00 23:00 82°F   29.92 inHg Light breeze from southwest 6 mph
  23:00 05:00 63°F   29.94 inHg Light air from east 2 mph
      Temperature Precip Pressure Wind  
Friday
08/24/2018
05:00 11:00 54°F   29.92 inHg Light breeze from east-northeast 4 mph
  11:00 17:00 81°F   29.93 inHg Light breeze from southwest 5 mph
  17:00 23:00 82°F   29.86 inHg Light breeze from southwest 7 mph
  23:00 05:00 63°F   29.89 inHg Light air from east 2 mph
      Temperature Precip Pressure Wind  
Saturday
08/25/2018
05:00 11:00 54°F   29.86 inHg Light breeze from east-northeast 4 mph
  11:00 17:00 82°F   29.90 inHg Light breeze from southwest 6 mph
  17:00 23:00 84°F   29.84 inHg Light breeze from southwest 6 mph
  23:00 05:00 64°F   29.89 inHg Light air from east 2 mph
      Temperature Precip Pressure Wind  
Sunday
08/26/2018
05:00 11:00 54°F   29.88 inHg Light breeze from east-northeast 6 mph
  11:00 17:00 82°F   29.92 inHg Light breeze from southwest 5 mph
  17:00 23:00 82°F   29.87 inHg Light breeze from southwest 6 mph
  23:00 05:00 59°F   29.89 inHg Light air from east-northeast 3 mph
      Temperature Precip Pressure Wind  
Monday
08/27/2018
05:00 11:00 54°F   29.88 inHg Light breeze from east-northeast 5 mph
  11:00 17:00 84°F   29.88 inHg Light breeze from southwest 6 mph
  17:00 23:00 82°F   29.83 inHg Light breeze from south-southwest 7 mph
  23:00 05:00 61°F   29.86 inHg Light air from east-southeast 3 mph

NOAA Local Storm Report
PONCE   ( More )
DATE
08/18/2018
TIME
4:00 PM
COUNTY
PONCE
STATE
PR
GEOGRAPHIC
17.99N 66.61W
SOURCE
EMERGENCY MNGR
FLOOD
road pr-505 impassable as water from rio portugues in barrio tibes penetrated through the road.
How Close Are We To this Month's Temperature Record ?
Updated Saturday, Aug 18, 2018- 10:30:01 PM

Current Temperature: 74.8°F

August's High: Temperature Record 97.8°F - Set on Sat, Aug 11, 2012 - 2:34:00 PM
We are currently 23°F Less than this Month's record High

August's Low: Temperature Record 57.5°F - Set on Sun, Aug 30, 2015 - 7:31:00 AM
We are currently 17.3°F More than this Month's record Low

Weather History For Sunday, August 19, 2018


On this Day - In Weather History ...
Data courtesy of weatherforyou.com
powered by Cumulus v1.9.3 (1059)
Ambient Weather VWS v14.00
Top Contact Website Map Copyright © 2007 - 2018 Foresthillweather.com Never base important decisions on this or any weather information obtained from the Internet